Location: Bu�n Treun
(12.1333°N, 108.3167°E)
Time: 00:06:04
(UTC+00:00)

Timation 2 Rocket - Pass Details

Date: 13 July 2020
Orbit: 907 x 1074 km, 70.0° (Epoch: 03 August)

Event Time Altitude Azimuth Distance (km) Brightness Sun altitude
Rises 21:57:50 0° 201° (SSW) 3,835 6.7 -7.9°
Reaches altitude 10° 22:00:30 10° 203° (SSW) 2,867 6.0 -7.3°
Maximum altitude 22:07:12 72° 287° (WNW) 1,078 4.2 -5.8°
Drops below altitude 10° 22:13:40 10° 11° (N) 2,763 6.9 -4.4°
Sets 22:16:12 0° 14° (NNE) 3,687 7.6 -3.8°
